Regional Weather Roundup
Issued by NWS

Home | Current Version | Previous Version | Graphics & Text | Print | Product List | Glossary Off
Versions: 1 2 3 4 5 6 7 8 9 10 11 12 13 14 15 16 17 18 19 20 21 22 23 24 25 26 27 28 29 30 31 32 33 34 35 36 37 38 39 40 41 42 43 44 45 46 47 48 49 50

000
ASUS45 KPSR 272110
RWRAZ

ARIZONA HOURLY REGIONAL WEATHER ROUNDUP
NATIONAL WEATHER SERVICE PHOENIX AZ
200 PM MST WED JUL 27 2016

NOTE: FAIR INDICATES FEW OR NO CLOUDS BELOW 12,000 FEET WITH NO
SIGNIFICANT WEATHER AND/OR OBSTRUCTIONS TO VISIBILITY.

AZZ001>003-036-272200-
NORTHWEST ARIZONA

CITY           SKY/WX    TMP DP  RH WIND       PRES   REMARKS
BULLHEAD CITY  SUNNY    113  52  13 SW10      29.75F HX 110
KINGMAN        MOSUNNY  103  49  16 SW14G23   30.01F
$$

AZZ004>008-015-016-018-272200-
NORTH CENTRAL ARIZONA

CITY           SKY/WX    TMP DP  RH WIND       PRES   REMARKS
GRAND CANYON   MOSUNNY   95  27   9 N9G16     30.29F
WILLIAMS       PTSUNNY   86  48  26 SW14G21   30.36F
PRESCOTT       MOSUNNY   99  41  13 NE12      30.14F THUNDER
FLAGSTAFF      MOSUNNY   88  37  16 E10       30.31F
PAYSON         MOSUNNY   95  50  21 NW9G18    30.15F
PAGE           SUNNY    102  35  10 VRB5      30.06F
$$

AZZ009>014-017-272200-
NORTHEAST ARIZONA

CITY           SKY/WX    TMP DP  RH WIND       PRES   REMARKS
WINSLOW        MOSUNNY  101  39  12 CALM      30.11F
SAINT JOHNS    MOSUNNY   96  41  15 NE12G20   30.15F
WINDOW ROCK    MOSUNNY   94  30  10 N13G21    30.27F
SHOW LOW       MOSUNNY   90  36  14 N9G20     30.24F
$$

AZZ023-272200-
GREATER PHOENIX AREA

CITY           SKY/WX    TMP DP  RH WIND       PRES   REMARKS
PHOENIX        MOSUNNY  109  58  18 W10G18    29.79F HX 109
BUCKEYE          N/A    108  55  18 SW6       29.81F HX 106
GLENDALE       MOSUNNY  109  54  16 SW6       29.81F HX 108
LUKE AFB       SUNNY    109  58  18 S9        29.78F HX 109
DEER VALLEY    SUNNY    106  58  20 W8        29.82F HX 106
SCOTTSDALE     SUNNY    106  57  20 VRB6      29.84F HX 105
MESA-FALCON    MOSUNNY  N/A N/A N/A SW7       29.80
MESA-GATEWAY   MOSUNNY  102  61  25 W7        29.83F HX 103
CHANDLER       MOSUNNY  106  59  21 W6        29.81F HX 106
$$

AZZ027-028-272200-
SOUTHWEST MARICOPA COUNTY AND PINAL COUNTY

CITY           SKY/WX    TMP DP  RH WIND       PRES   REMARKS
CASA GRANDE    SUNNY    108  59  20 NW6G17    29.85F HX 108
GILA BEND      MOSUNNY  109  55  17 VRB7      29.78F HX 108
$$

AZZ503-504-507>509-272200-
SOUTHEAST ARIZONA

CITY           SKY/WX    TMP DP  RH WIND       PRES   REMARKS
TUCSON         SUNNY    103  58  22 CALM      29.94F HX 102
DAVIS-MONTHAN  SUNNY    100  60  26 NW12      29.93F HX 100
RYAN FIELD     SUNNY    102  59  24 W14G22    29.93F HX 102
NOGALES        MOSUNNY   90  57  32 CALM      30.06F
SIERRA VISTA   MOSUNNY   93  55  27 VRB6      30.11F
DOUGLAS        MOSUNNY   90  64  42 NE9G21    30.06F
SAFFORD        SUNNY     99  56  23 CALM      29.91F
$$

AZZ020-021-025-026-031-272200-
SOUTHWEST ARIZONA

CITY           SKY/WX    TMP DP  RH WIND       PRES   REMARKS
YUMA           PTSUNNY  110  61  20 SW10      29.76F HX 112
$$

CAZ031-033-041-043-047-048-061-272200-
SOUTHERN CALIFORNIA

CITY           SKY/WX    TMP DP  RH WIND       PRES   REMARKS
DOWNTOWN L.A.  SUNNY     86  55  34 VRB3      29.89F
L.A. AIRPORT   MOSUNNY   79  65  62 W14       29.92S
SAN DIEGO      MOSUNNY   77  67  71 W8        29.93F
BURBANK        SUNNY     95  47  19 S10       29.90F
ONTARIO        MOSUNNY   99  46  16 W13       29.91F
RIVERSIDE      SUNNY     99  46  16 W8        29.90F
PALM SPRINGS   MOSUNNY  112  53  14 VRB7      29.78F HX 110
EL CENTRO NAS  MOSUNNY  112  59  18 SE9       29.74F HX 113
IMPERIAL       MOSUNNY  113  66  22 SE8       29.72F HX 119
BLYTHE         SUNNY    113  57  16 S17G23    29.75F HX 113
NEEDLES        CLOUDY   115  53  13 S7        29.77F HX 113
$$

NVZ020-UTZ003-272200-
SOUTHERN NEVADA-UTAH

CITY           SKY/WX    TMP DP  RH WIND       PRES   REMARKS
LAS VEGAS      MOSUNNY  112  39   8 N7        29.83F HX 105
SALT LAKE CITY MOSUNNY   99  30   9 NW7       30.10F
$$

NMZ009-TXZ055-272200-
NEW MEXICO-WEST TEXAS

CITY           SKY/WX    TMP DP  RH WIND       PRES   REMARKS
ALBUQUERQUE    CLOUDY    90  50  25 VRB6      30.15F
EL PASO        MOSUNNY   93  56  28 N7        30.03F
$$


........................KEY........................
SKY/WX - SKY CONDITION/WEATHER
TMP    - TEMPERATURE IN FAHRENHEIT
DP     - DEW POINT IN FAHRENHEIT
RH     - RELATIVE HUMIDITY IN PERCENT
WIND   - DIRECTION AND SPEED IN MILES PER HOUR (MPH)
VRB    - VARIABLE WIND DIRECTION
PRES   - MEAN SEA LEVEL PRESSURE IN INCHES OF MERCURY
         F - FALLING PRESSURE   R - RISING PRESSURE
         S - STEADY PRESSURE
VSB    - VISIBILITY IN MILES
HX     - HEAT INDEX IN FAHRENHEIT
WCI    - WIND CHILL INDEX IN FAHRENHEIT
TC     - TEMPERATURE IN CELSIUS WHICH IS ALSO KNOWN AS
         TEMPERATURE IN CENTIGRADE
AFB    - AIR FORCE BASE
         LUKE AFB IS LUKE AIR FORCE BASE
         DAVIS-MONTHAN IS DAVIS-MONTHAN AIR FORCE BASE
NAS    - NAVAL AIR STATION
         EL CENTRO NAS IS EL CENTRO NAVAL AIR STATION
N/A    - NOT AVAILABLE




USA.gov is the U.S. government's official web portal to all federal, state and local government web resources and services.